Year,Month,Day,Hour,Minute,Value (Times are PST for temperature in C)
2008,10,09,00,00,4.40
2008,10,09,00,01,4.30
2008,10,09,00,02,4.30
2008,10,09,00,03,4.30
2008,10,09,00,04,4.30
2008,10,09,00,05,4.30
2008,10,09,00,06,4.30
2008,10,09,00,07,4.30
2008,10,09,00,08,4.30
2008,10,09,00,09,4.30
2008,10,09,00,10,4.30
2008,10,09,00,11,4.30
2008,10,09,00,12,4.30
2008,10,09,00,13,4.30
2008,10,09,00,14,4.40
2008,10,09,00,15,4.40
2008,10,09,00,16,4.40
2008,10,09,00,17,4.40
2008,10,09,00,18,4.40
2008,10,09,00,19,4.40
2008,10,09,00,20,4.40
2008,10,09,00,21,4.40
2008,10,09,00,22,4.40
2008,10,09,00,23,4.40
2008,10,09,00,24,4.40
2008,10,09,00,25,4.50
2008,10,09,00,26,4.60
2008,10,09,00,27,4.70
2008,10,09,00,28,4.70
2008,10,09,00,29,4.70
2008,10,09,00,30,4.70
2008,10,09,00,31,4.80
2008,10,09,00,32,4.80
2008,10,09,00,33,4.80
2008,10,09,00,34,4.80
2008,10,09,00,35,4.80
2008,10,09,00,36,4.80
2008,10,09,00,37,4.80
2008,10,09,00,38,4.70
2008,10,09,00,39,4.70
2008,10,09,00,40,4.70
2008,10,09,00,41,4.70
2008,10,09,00,42,4.70
2008,10,09,00,43,4.70
2008,10,09,00,44,4.70
2008,10,09,00,45,4.70
2008,10,09,00,46,4.70
2008,10,09,00,47,4.70
2008,10,09,00,48,4.80
2008,10,09,00,49,4.80
2008,10,09,00,50,4.70
2008,10,09,00,51,4.70
2008,10,09,00,52,4.80
2008,10,09,00,53,4.80
2008,10,09,00,54,4.80
2008,10,09,00,55,4.80
2008,10,09,00,56,4.80
2008,10,09,00,57,4.80
2008,10,09,00,58,4.80
2008,10,09,00,59,4.80
2008,10,09,01,00,4.80
2008,10,09,01,01,4.80
2008,10,09,01,02,4.80
2008,10,09,01,03,4.70
2008,10,09,01,04,4.70
2008,10,09,01,05,4.70
2008,10,09,01,06,4.70
2008,10,09,01,07,4.70
2008,10,09,01,08,4.70
2008,10,09,01,09,4.70
2008,10,09,01,10,4.70
2008,10,09,01,11,4.60
2008,10,09,01,12,4.60
2008,10,09,01,13,4.60
2008,10,09,01,14,4.60
2008,10,09,01,15,4.70
2008,10,09,01,16,4.60
2008,10,09,01,17,4.60
2008,10,09,01,18,4.60
2008,10,09,01,19,4.60
2008,10,09,01,20,4.60
2008,10,09,01,21,4.60
2008,10,09,01,22,4.60
2008,10,09,01,23,4.60
2008,10,09,01,24,4.60
2008,10,09,01,25,4.50
2008,10,09,01,26,4.50
2008,10,09,01,27,4.50
2008,10,09,01,28,4.40
2008,10,09,01,29,4.40
2008,10,09,01,30,4.40
2008,10,09,01,31,4.40
2008,10,09,01,32,4.40
2008,10,09,01,33,4.30
2008,10,09,01,34,4.30
2008,10,09,01,35,4.30
2008,10,09,01,36,4.30
2008,10,09,01,37,4.30
2008,10,09,01,38,4.30
2008,10,09,01,39,4.30
2008,10,09,01,40,4.20
2008,10,09,01,41,4.20
2008,10,09,01,42,4.20
2008,10,09,01,43,4.20
2008,10,09,01,44,4.20
2008,10,09,01,45,4.20
2008,10,09,01,46,4.20
2008,10,09,01,47,4.20
2008,10,09,01,48,4.20
2008,10,09,01,49,4.20
2008,10,09,01,50,4.20
2008,10,09,01,51,4.20
2008,10,09,01,52,4.20
2008,10,09,01,53,4.20
2008,10,09,01,54,4.20
2008,10,09,01,55,4.20
2008,10,09,01,56,4.20
2008,10,09,01,57,4.10
2008,10,09,01,58,4.10
2008,10,09,01,59,4.10
2008,10,09,02,00,4.10
2008,10,09,02,01,4.10
2008,10,09,02,02,4.20
2008,10,09,02,03,4.20
2008,10,09,02,04,4.20
2008,10,09,02,05,4.20
2008,10,09,02,06,4.20
2008,10,09,02,07,4.20
2008,10,09,02,08,4.20
2008,10,09,02,09,4.20
2008,10,09,02,10,4.20
2008,10,09,02,11,4.20
2008,10,09,02,12,4.20
2008,10,09,02,13,4.30
2008,10,09,02,14,4.30
2008,10,09,02,15,4.30
2008,10,09,02,16,4.30
2008,10,09,02,17,4.30
2008,10,09,02,18,4.30
2008,10,09,02,19,4.30
2008,10,09,02,20,4.30
2008,10,09,02,21,4.30
2008,10,09,02,22,4.30
2008,10,09,02,23,4.30
2008,10,09,02,24,4.30
2008,10,09,02,25,4.20
2008,10,09,02,26,4.20
2008,10,09,02,27,4.20
2008,10,09,02,28,4.20
2008,10,09,02,29,4.20
2008,10,09,02,30,4.20
2008,10,09,02,31,4.20
2008,10,09,02,32,4.20
2008,10,09,02,33,4.20
2008,10,09,02,34,4.20
2008,10,09,02,35,4.20
2008,10,09,02,36,4.20
2008,10,09,02,37,4.20
2008,10,09,02,38,4.20
2008,10,09,02,39,4.20
2008,10,09,02,40,4.10
2008,10,09,02,41,4.10
2008,10,09,02,42,4.10
2008,10,09,02,43,4.10
2008,10,09,02,44,4.10
2008,10,09,02,45,4.00
2008,10,09,02,46,4.00
2008,10,09,02,47,4.00
2008,10,09,02,48,3.90
2008,10,09,02,49,3.90
2008,10,09,02,50,3.90
2008,10,09,02,51,3.90
2008,10,09,02,52,3.80
2008,10,09,02,53,3.80
2008,10,09,02,54,3.80
2008,10,09,02,55,3.80
2008,10,09,02,56,3.90
2008,10,09,02,57,3.90
2008,10,09,02,58,3.90
2008,10,09,02,59,3.90
2008,10,09,03,00,3.90
2008,10,09,03,01,3.90
2008,10,09,03,02,3.90
2008,10,09,03,03,3.90
2008,10,09,03,04,3.90
2008,10,09,03,05,3.80
2008,10,09,03,06,3.80
2008,10,09,03,07,3.80
2008,10,09,03,08,3.80
2008,10,09,03,09,3.80
2008,10,09,03,10,3.80
2008,10,09,03,11,3.80
2008,10,09,03,12,3.70
2008,10,09,03,13,3.70
2008,10,09,03,14,3.70
2008,10,09,03,15,3.70
2008,10,09,03,16,3.80
2008,10,09,03,17,3.80
2008,10,09,03,18,3.80
2008,10,09,03,19,3.80
2008,10,09,03,20,3.80
2008,10,09,03,21,3.80
2008,10,09,03,22,3.80
2008,10,09,03,23,3.80
2008,10,09,03,24,3.80
2008,10,09,03,25,3.80
2008,10,09,03,26,3.80
2008,10,09,03,27,3.70
2008,10,09,03,28,3.70
2008,10,09,03,29,3.70
2008,10,09,03,30,3.70
2008,10,09,03,31,3.70
2008,10,09,03,32,3.70
2008,10,09,03,33,3.70
2008,10,09,03,34,3.70
2008,10,09,03,35,3.70
2008,10,09,03,36,3.70
2008,10,09,03,37,3.70
2008,10,09,03,38,3.60
2008,10,09,03,39,3.60
2008,10,09,03,40,3.60
2008,10,09,03,41,3.60
2008,10,09,03,42,3.60
2008,10,09,03,43,3.60
2008,10,09,03,44,3.60
2008,10,09,03,45,3.60
2008,10,09,03,46,3.60
2008,10,09,03,47,3.60
2008,10,09,03,48,3.60
2008,10,09,03,49,3.60
2008,10,09,03,50,3.60
2008,10,09,03,51,3.60
2008,10,09,03,52,3.60
2008,10,09,03,53,3.60
2008,10,09,03,54,3.60
2008,10,09,03,55,3.60
2008,10,09,03,56,3.60
2008,10,09,03,57,3.60
2008,10,09,03,58,3.50
2008,10,09,03,59,3.60
2008,10,09,04,00,3.50
2008,10,09,04,01,3.50
2008,10,09,04,02,3.50
2008,10,09,04,03,3.50
2008,10,09,04,04,3.50
2008,10,09,04,05,3.50
2008,10,09,04,06,3.50
2008,10,09,04,07,3.50
2008,10,09,04,08,3.50
2008,10,09,04,09,3.50
2008,10,09,04,10,3.40
2008,10,09,04,11,3.40
2008,10,09,04,12,3.40
2008,10,09,04,13,3.40
2008,10,09,04,14,3.40
2008,10,09,04,15,3.40
2008,10,09,04,16,3.40
2008,10,09,04,17,3.40
2008,10,09,04,18,3.40
2008,10,09,04,19,3.40
2008,10,09,04,20,3.40
2008,10,09,04,21,3.40
2008,10,09,04,22,3.40
2008,10,09,04,23,3.40
2008,10,09,04,24,3.40
2008,10,09,04,25,3.40
2008,10,09,04,26,3.40
2008,10,09,04,27,3.40
2008,10,09,04,28,3.40
2008,10,09,04,29,3.40
2008,10,09,04,30,3.40
2008,10,09,04,31,3.40
2008,10,09,04,32,3.40
2008,10,09,04,33,3.30
2008,10,09,04,34,3.30
2008,10,09,04,35,3.30
2008,10,09,04,36,3.30
2008,10,09,04,37,3.30
2008,10,09,04,38,3.30
2008,10,09,04,39,3.30
2008,10,09,04,40,3.30
2008,10,09,04,41,3.30
2008,10,09,04,42,3.30
2008,10,09,04,43,3.30
2008,10,09,04,44,3.30
2008,10,09,04,45,3.20
2008,10,09,04,46,3.20
2008,10,09,04,47,3.20
2008,10,09,04,48,3.20
2008,10,09,04,49,3.20
2008,10,09,04,50,3.20
2008,10,09,04,51,3.20
2008,10,09,04,52,3.20
2008,10,09,04,53,3.20
2008,10,09,04,54,3.20
2008,10,09,04,55,3.20
2008,10,09,04,56,3.20
2008,10,09,04,57,3.10
2008,10,09,04,58,3.10
2008,10,09,04,59,3.10
2008,10,09,05,00,3.10
2008,10,09,05,01,3.10
2008,10,09,05,02,3.10
2008,10,09,05,03,3.10
2008,10,09,05,04,3.10
2008,10,09,05,05,3.10
2008,10,09,05,06,3.10
2008,10,09,05,07,3.20
2008,10,09,05,08,3.20
2008,10,09,05,09,3.20
2008,10,09,05,10,3.20
2008,10,09,05,11,3.20
2008,10,09,05,12,3.20
2008,10,09,05,13,3.20
2008,10,09,05,14,3.20
2008,10,09,05,15,3.20
2008,10,09,05,16,3.20
2008,10,09,05,17,3.20
2008,10,09,05,18,3.20
2008,10,09,05,19,3.20
2008,10,09,05,20,3.20
2008,10,09,05,21,3.20
2008,10,09,05,22,3.20
2008,10,09,05,23,3.10
2008,10,09,05,24,3.10
2008,10,09,05,25,3.10
2008,10,09,05,26,3.10
2008,10,09,05,27,3.10
2008,10,09,05,28,3.10
2008,10,09,05,29,3.10
2008,10,09,05,30,3.10
2008,10,09,05,31,3.10
2008,10,09,05,32,3.10
2008,10,09,05,33,3.10
2008,10,09,05,34,3.10
2008,10,09,05,35,3.10
2008,10,09,05,36,3.10
2008,10,09,05,37,3.10
2008,10,09,05,38,3.10
2008,10,09,05,39,3.10
2008,10,09,05,40,3.10
2008,10,09,05,41,3.10
2008,10,09,05,42,3.00
2008,10,09,05,43,3.00
2008,10,09,05,44,3.00
2008,10,09,05,45,3.00
2008,10,09,05,46,3.00
2008,10,09,05,47,3.00
2008,10,09,05,48,3.10
2008,10,09,05,49,3.10
2008,10,09,05,50,3.10
2008,10,09,05,51,3.10
2008,10,09,05,52,3.10
2008,10,09,05,53,3.10
2008,10,09,05,54,3.10
2008,10,09,05,55,3.10
2008,10,09,05,56,3.10
2008,10,09,05,57,3.10
2008,10,09,05,58,3.10
2008,10,09,05,59,3.10
2008,10,09,06,00,3.10
2008,10,09,06,01,3.10
2008,10,09,06,02,3.10
2008,10,09,06,03,3.10
2008,10,09,06,04,3.10
2008,10,09,06,05,3.10
2008,10,09,06,06,3.10
2008,10,09,06,07,3.10
2008,10,09,06,08,3.10
2008,10,09,06,09,3.10
2008,10,09,06,10,3.10
2008,10,09,06,11,3.10
2008,10,09,06,12,3.10
2008,10,09,06,13,3.10
2008,10,09,06,14,3.10
2008,10,09,06,15,3.10
2008,10,09,06,16,3.10
2008,10,09,06,17,3.10
2008,10,09,06,18,3.10
2008,10,09,06,19,3.10
2008,10,09,06,20,3.10
2008,10,09,06,21,3.10
2008,10,09,06,22,3.10
2008,10,09,06,23,3.10
2008,10,09,06,24,3.10
2008,10,09,06,25,3.20
2008,10,09,06,26,3.20
2008,10,09,06,27,3.20
2008,10,09,06,28,3.20
2008,10,09,06,29,3.20
2008,10,09,06,30,3.20
2008,10,09,06,31,3.20
2008,10,09,06,32,3.20
2008,10,09,06,33,3.20
2008,10,09,06,34,3.20
2008,10,09,06,35,3.30
2008,10,09,06,36,3.30
2008,10,09,06,37,3.30
2008,10,09,06,38,3.30
2008,10,09,06,39,3.30
2008,10,09,06,40,3.30
2008,10,09,06,41,3.30
2008,10,09,06,42,3.30
2008,10,09,06,43,3.30
2008,10,09,06,44,3.30
2008,10,09,06,45,3.30
2008,10,09,06,46,3.30
2008,10,09,06,47,3.20
2008,10,09,06,48,3.20
2008,10,09,06,49,3.20
2008,10,09,06,50,3.20
2008,10,09,06,51,3.20
2008,10,09,06,52,3.20
2008,10,09,06,53,3.20
2008,10,09,06,54,3.20
2008,10,09,06,55,3.20
2008,10,09,06,56,3.20
2008,10,09,06,57,3.20
2008,10,09,06,58,3.20
2008,10,09,06,59,3.20
2008,10,09,07,00,3.20
2008,10,09,07,01,3.20
2008,10,09,07,02,3.20
2008,10,09,07,03,3.20
2008,10,09,07,04,3.20
2008,10,09,07,05,3.20
2008,10,09,07,06,3.20
2008,10,09,07,07,3.10
2008,10,09,07,08,3.10
2008,10,09,07,09,3.10
2008,10,09,07,10,3.10
2008,10,09,07,11,3.10
2008,10,09,07,12,3.10
2008,10,09,07,13,3.10
2008,10,09,07,14,3.10
2008,10,09,07,15,3.10
2008,10,09,07,16,3.10
2008,10,09,07,17,3.10
2008,10,09,07,18,3.10
2008,10,09,07,19,3.10
2008,10,09,07,20,3.10
2008,10,09,07,21,3.10
2008,10,09,07,22,3.10
2008,10,09,07,23,3.10
2008,10,09,07,24,3.10
2008,10,09,07,25,3.10
2008,10,09,07,26,3.10
2008,10,09,07,27,3.00
2008,10,09,07,28,3.00
2008,10,09,07,29,3.00
2008,10,09,07,30,3.00
2008,10,09,07,31,3.00
2008,10,09,07,32,3.00
2008,10,09,07,33,3.00
2008,10,09,07,34,3.00
2008,10,09,07,35,3.00
2008,10,09,07,36,2.90
2008,10,09,07,37,2.90
2008,10,09,07,38,2.90
2008,10,09,07,39,2.90
2008,10,09,07,40,2.90
2008,10,09,07,41,2.90
2008,10,09,07,42,2.90
2008,10,09,07,43,2.90
2008,10,09,07,44,3.00
2008,10,09,07,45,3.00
2008,10,09,07,46,3.00
2008,10,09,07,47,3.00
2008,10,09,07,48,3.00
2008,10,09,07,49,3.00
2008,10,09,07,50,3.00
2008,10,09,07,51,3.00
2008,10,09,07,52,3.00
2008,10,09,07,53,3.00
2008,10,09,07,54,3.00
2008,10,09,07,55,3.00
2008,10,09,07,56,3.00
2008,10,09,07,57,3.00
2008,10,09,07,58,3.00
2008,10,09,07,59,3.00
2008,10,09,08,00,3.00
2008,10,09,08,01,3.00
2008,10,09,08,02,3.00
2008,10,09,08,03,3.00
2008,10,09,08,04,3.10
2008,10,09,08,05,3.10
2008,10,09,08,06,3.10
2008,10,09,08,07,3.10
2008,10,09,08,08,3.10
2008,10,09,08,09,3.10
2008,10,09,08,10,3.10
2008,10,09,08,11,3.20
2008,10,09,08,12,3.20
2008,10,09,08,13,3.20
2008,10,09,08,14,3.20
2008,10,09,08,15,3.20
2008,10,09,08,16,3.20
2008,10,09,08,17,3.20
2008,10,09,08,18,3.30
2008,10,09,08,19,3.30
2008,10,09,08,20,3.30
2008,10,09,08,21,3.30
2008,10,09,08,22,3.30
2008,10,09,08,23,3.30
2008,10,09,08,24,3.30
2008,10,09,08,25,3.30
2008,10,09,08,26,3.40
2008,10,09,08,27,3.40
2008,10,09,08,28,3.40
2008,10,09,08,29,3.40
2008,10,09,08,30,3.40
2008,10,09,08,31,3.40
2008,10,09,08,32,3.40
2008,10,09,08,33,3.50
2008,10,09,08,34,3.50
2008,10,09,08,35,3.50
2008,10,09,08,36,3.50
2008,10,09,08,37,3.50
2008,10,09,08,38,3.60
2008,10,09,08,39,3.60
2008,10,09,08,40,3.60
2008,10,09,08,41,3.70
2008,10,09,08,42,3.70
2008,10,09,08,43,3.80
2008,10,09,08,44,3.80
2008,10,09,08,45,3.90
2008,10,09,08,46,4.00
2008,10,09,08,47,4.00
2008,10,09,08,48,4.10
2008,10,09,08,49,4.10
2008,10,09,08,50,4.20
2008,10,09,08,51,4.20
2008,10,09,08,52,4.30
2008,10,09,08,53,4.30
2008,10,09,08,54,4.40
2008,10,09,08,55,4.40
2008,10,09,08,56,4.50
2008,10,09,08,57,4.60
2008,10,09,08,58,4.60
2008,10,09,08,59,4.70
2008,10,09,09,00,4.70
2008,10,09,09,01,4.80
2008,10,09,09,02,4.80
2008,10,09,09,03,4.90
2008,10,09,09,04,4.90
2008,10,09,09,05,5.00
2008,10,09,09,06,5.00
2008,10,09,09,07,5.10
2008,10,09,09,08,5.20
2008,10,09,09,09,5.20
2008,10,09,09,10,5.30
2008,10,09,09,11,5.30
2008,10,09,09,12,5.40
2008,10,09,09,13,5.50
2008,10,09,09,14,5.50
2008,10,09,09,15,5.60
2008,10,09,09,16,5.70
2008,10,09,09,17,5.70
2008,10,09,09,18,5.80
2008,10,09,09,19,5.80
2008,10,09,09,20,5.90
2008,10,09,09,21,6.00
2008,10,09,09,22,6.00
2008,10,09,09,23,6.10
2008,10,09,09,24,6.20
2008,10,09,09,25,6.30
2008,10,09,09,26,6.30
2008,10,09,09,27,6.40
2008,10,09,09,28,6.50
2008,10,09,09,29,6.60
2008,10,09,09,30,6.70
2008,10,09,09,31,6.70
2008,10,09,09,32,6.80
2008,10,09,09,33,6.90
2008,10,09,09,34,7.00
2008,10,09,09,35,7.10
2008,10,09,09,36,7.10
2008,10,09,09,37,7.20
2008,10,09,09,38,7.20
2008,10,09,09,39,7.30
2008,10,09,09,40,7.40
2008,10,09,09,41,7.40
2008,10,09,09,42,7.50
2008,10,09,09,43,7.50
2008,10,09,09,44,7.60
2008,10,09,09,45,7.70
2008,10,09,09,46,7.80
2008,10,09,09,47,7.80
2008,10,09,09,48,7.80
2008,10,09,09,49,7.80
2008,10,09,09,50,7.90
2008,10,09,09,51,7.90
2008,10,09,09,52,8.00
2008,10,09,09,53,8.00
2008,10,09,09,54,8.10
2008,10,09,09,55,8.20
2008,10,09,09,56,8.30
2008,10,09,09,57,8.30
2008,10,09,09,58,8.30
2008,10,09,09,59,8.40
2008,10,09,10,00,8.40
2008,10,09,10,01,8.30
2008,10,09,10,02,8.30
2008,10,09,10,03,8.20
2008,10,09,10,04,8.20
2008,10,09,10,05,8.20
2008,10,09,10,06,8.20
2008,10,09,10,07,8.20
2008,10,09,10,08,8.30
2008,10,09,10,09,8.30
2008,10,09,10,10,8.30
2008,10,09,10,11,8.40
2008,10,09,10,12,8.40
2008,10,09,10,13,8.50
2008,10,09,10,14,8.50
2008,10,09,10,15,8.60
2008,10,09,10,16,8.70
2008,10,09,10,17,8.70
2008,10,09,10,18,8.70
2008,10,09,10,19,8.70
2008,10,09,10,20,8.70
2008,10,09,10,21,8.70
2008,10,09,10,22,8.70
2008,10,09,10,23,8.70
2008,10,09,10,24,8.70
2008,10,09,10,25,8.70
2008,10,09,10,26,8.70
2008,10,09,10,27,8.70
2008,10,09,10,28,8.70
2008,10,09,10,29,8.70
2008,10,09,10,30,8.70
2008,10,09,10,31,8.70
2008,10,09,10,32,8.70
2008,10,09,10,33,8.70
2008,10,09,10,34,8.60
2008,10,09,10,35,8.60
2008,10,09,10,36,8.50
2008,10,09,10,37,8.50
2008,10,09,10,38,8.50
2008,10,09,10,39,8.50
2008,10,09,10,40,8.40
2008,10,09,10,41,8.40
2008,10,09,10,42,8.40
2008,10,09,10,43,8.30
2008,10,09,10,44,8.30
2008,10,09,10,45,8.30
2008,10,09,10,46,8.30
2008,10,09,10,47,8.30
2008,10,09,10,48,8.30
2008,10,09,10,49,8.30
2008,10,09,10,50,8.20
2008,10,09,10,51,8.20
2008,10,09,10,52,8.20
2008,10,09,10,53,8.20
2008,10,09,10,54,8.20
2008,10,09,10,55,8.20
2008,10,09,10,56,8.20
2008,10,09,10,57,8.20
2008,10,09,10,58,8.20
2008,10,09,10,59,8.20
2008,10,09,11,00,8.20
2008,10,09,11,01,8.30
2008,10,09,11,02,8.30
2008,10,09,11,03,8.30
2008,10,09,11,04,8.30
2008,10,09,11,05,8.30
2008,10,09,11,06,8.40
2008,10,09,11,07,8.40
2008,10,09,11,08,8.40
2008,10,09,11,09,8.40
2008,10,09,11,10,8.40
2008,10,09,11,11,8.40
2008,10,09,11,12,8.40
2008,10,09,11,13,8.40
2008,10,09,11,14,8.40
2008,10,09,11,15,8.40
2008,10,09,11,16,8.40
2008,10,09,11,17,8.40
2008,10,09,11,18,8.40
2008,10,09,11,19,8.40
2008,10,09,11,20,8.40
2008,10,09,11,21,8.40
2008,10,09,11,22,8.40
2008,10,09,11,23,8.40
2008,10,09,11,24,8.40
2008,10,09,11,25,8.40
2008,10,09,11,26,8.40
2008,10,09,11,27,8.30
2008,10,09,11,28,8.30
2008,10,09,11,29,8.30
2008,10,09,11,30,8.30
2008,10,09,11,31,8.30
2008,10,09,11,32,8.30
2008,10,09,11,33,8.30
2008,10,09,11,34,8.30
2008,10,09,11,35,8.30
2008,10,09,11,36,8.30
2008,10,09,11,37,8.20
2008,10,09,11,38,8.20
2008,10,09,11,39,8.20
2008,10,09,11,40,8.20
2008,10,09,11,41,8.20
2008,10,09,11,42,8.20
2008,10,09,11,43,8.20
2008,10,09,11,44,8.20
2008,10,09,11,45,8.20
2008,10,09,11,46,8.20
2008,10,09,11,47,8.20
2008,10,09,11,48,8.30
2008,10,09,11,49,8.30
2008,10,09,11,50,8.30
2008,10,09,11,51,8.30
2008,10,09,11,52,8.30
2008,10,09,11,53,8.30
2008,10,09,11,54,8.40
2008,10,09,11,55,8.40
2008,10,09,11,56,8.40
2008,10,09,11,57,8.50
2008,10,09,11,58,8.50
2008,10,09,11,59,8.60
2008,10,09,12,00,8.60
2008,10,09,12,01,8.60
2008,10,09,12,02,8.60
2008,10,09,12,03,8.70
2008,10,09,12,04,8.70
2008,10,09,12,05,8.70
2008,10,09,12,06,8.80
2008,10,09,12,07,8.80
2008,10,09,12,08,8.80
2008,10,09,12,09,8.80
2008,10,09,12,10,8.90
2008,10,09,12,11,8.90
2008,10,09,12,12,9.00
2008,10,09,12,13,9.00
2008,10,09,12,14,9.00
2008,10,09,12,15,9.10
2008,10,09,12,16,9.10
2008,10,09,12,17,9.20
2008,10,09,12,18,9.20
2008,10,09,12,19,9.20
2008,10,09,12,20,9.30
2008,10,09,12,21,9.30
2008,10,09,12,22,9.20
2008,10,09,12,23,9.20
2008,10,09,12,24,9.30
2008,10,09,12,25,9.30
2008,10,09,12,26,9.30
2008,10,09,12,27,9.30
2008,10,09,12,28,9.40
2008,10,09,12,29,9.40
2008,10,09,12,30,9.40
2008,10,09,12,31,9.50
2008,10,09,12,32,9.60
2008,10,09,12,33,9.60
2008,10,09,12,34,9.60
2008,10,09,12,35,9.60
2008,10,09,12,36,9.70
2008,10,09,12,37,9.70
2008,10,09,12,38,9.70
2008,10,09,12,39,9.80
2008,10,09,12,40,9.80
2008,10,09,12,41,9.80
2008,10,09,12,42,9.90
2008,10,09,12,43,9.90
2008,10,09,12,44,9.90
2008,10,09,12,45,9.90
2008,10,09,12,46,9.90
2008,10,09,12,47,9.90
2008,10,09,12,48,9.90
2008,10,09,12,49,10.00
2008,10,09,12,50,10.10
2008,10,09,12,51,10.10
2008,10,09,12,52,10.10
2008,10,09,12,53,10.20
2008,10,09,12,54,10.20
2008,10,09,12,55,10.20
2008,10,09,12,56,10.20
2008,10,09,12,57,10.30
2008,10,09,12,58,10.30
2008,10,09,12,59,10.30
2008,10,09,13,00,10.30
2008,10,09,13,01,10.30
2008,10,09,13,02,10.30
2008,10,09,13,03,10.30
2008,10,09,13,04,10.40
2008,10,09,13,05,10.40
2008,10,09,13,06,10.40
2008,10,09,13,07,10.50
2008,10,09,13,08,10.50
2008,10,09,13,09,10.50
2008,10,09,13,10,10.50
2008,10,09,13,11,10.60
2008,10,09,13,12,10.60
2008,10,09,13,13,10.60
2008,10,09,13,14,10.60
2008,10,09,13,15,10.60
2008,10,09,13,16,10.70
2008,10,09,13,17,10.70
2008,10,09,13,18,10.70
2008,10,09,13,19,10.70
2008,10,09,13,20,10.70
2008,10,09,13,21,10.60
2008,10,09,13,22,10.60
2008,10,09,13,23,10.70
2008,10,09,13,24,10.70
2008,10,09,13,25,10.70
2008,10,09,13,26,10.70
2008,10,09,13,27,10.70
2008,10,09,13,28,10.70
2008,10,09,13,29,10.70
2008,10,09,13,30,10.70
2008,10,09,13,31,10.80
2008,10,09,13,32,10.80
2008,10,09,13,33,10.80
2008,10,09,13,34,10.80
2008,10,09,13,35,10.80
2008,10,09,13,36,10.70
2008,10,09,13,37,10.70
2008,10,09,13,38,10.70
2008,10,09,13,39,10.70
2008,10,09,13,40,10.60
2008,10,09,13,41,10.60
2008,10,09,13,42,10.60
2008,10,09,13,43,10.60
2008,10,09,13,44,10.60
2008,10,09,13,45,10.60
2008,10,09,13,46,10.60
2008,10,09,13,47,10.60
2008,10,09,13,48,10.50
2008,10,09,13,49,10.50
2008,10,09,13,50,10.40
2008,10,09,13,51,10.40
2008,10,09,13,52,10.30
2008,10,09,13,53,10.10
2008,10,09,13,54,10.00
2008,10,09,13,55,9.90
2008,10,09,13,56,9.80
2008,10,09,13,57,9.80
2008,10,09,13,58,9.80
2008,10,09,13,59,9.70
2008,10,09,14,00,9.60
2008,10,09,14,01,9.60
2008,10,09,14,02,9.50
2008,10,09,14,03,9.40
2008,10,09,14,04,9.30
2008,10,09,14,05,9.20
2008,10,09,14,06,9.10
2008,10,09,14,07,9.10
2008,10,09,14,08,9.10
2008,10,09,14,09,9.00
2008,10,09,14,10,9.00
2008,10,09,14,11,9.00
2008,10,09,14,12,9.00
2008,10,09,14,13,8.90
2008,10,09,14,14,8.70
2008,10,09,14,15,8.50
2008,10,09,14,16,8.40
2008,10,09,14,17,8.30
2008,10,09,14,18,8.10
2008,10,09,14,19,8.00
2008,10,09,14,20,7.80
2008,10,09,14,21,7.70
2008,10,09,14,22,7.60
2008,10,09,14,23,7.50
2008,10,09,14,24,7.40
2008,10,09,14,25,7.30
2008,10,09,14,26,7.20
2008,10,09,14,27,7.20
2008,10,09,14,28,7.20
2008,10,09,14,29,7.10
2008,10,09,14,30,7.00
2008,10,09,14,31,6.90
2008,10,09,14,32,6.80
2008,10,09,14,33,6.70
2008,10,09,14,34,6.70
2008,10,09,14,35,6.60
2008,10,09,14,36,6.60
2008,10,09,14,37,6.50
2008,10,09,14,38,6.40
2008,10,09,14,39,6.40
2008,10,09,14,40,6.30
2008,10,09,14,41,6.30
2008,10,09,14,42,6.30
2008,10,09,14,43,6.30
2008,10,09,14,44,6.30
2008,10,09,14,45,6.20
2008,10,09,14,46,6.20
2008,10,09,14,47,6.30
2008,10,09,14,48,6.30
2008,10,09,14,49,6.30
2008,10,09,14,50,6.20
2008,10,09,14,51,6.20
2008,10,09,14,52,6.20
2008,10,09,14,53,6.20
2008,10,09,14,54,6.20
2008,10,09,14,55,6.20
2008,10,09,14,56,6.20
2008,10,09,14,57,6.20
2008,10,09,14,58,6.20
2008,10,09,14,59,6.20
2008,10,09,15,00,6.10
2008,10,09,15,01,6.10
2008,10,09,15,02,6.10
2008,10,09,15,03,6.10
2008,10,09,15,04,6.10
2008,10,09,15,05,6.10
2008,10,09,15,06,6.10
2008,10,09,15,07,6.10
2008,10,09,15,08,6.20
2008,10,09,15,09,6.20
2008,10,09,15,10,6.10
2008,10,09,15,11,6.10
2008,10,09,15,12,6.10
2008,10,09,15,13,6.10
2008,10,09,15,14,6.10
2008,10,09,15,15,6.10
2008,10,09,15,16,6.10
2008,10,09,15,17,6.10
2008,10,09,15,18,6.10
2008,10,09,15,19,6.10
2008,10,09,15,20,6.10
2008,10,09,15,21,6.10
2008,10,09,15,22,6.10
2008,10,09,15,23,6.10
2008,10,09,15,24,6.10
2008,10,09,15,25,6.10
2008,10,09,15,26,6.10
2008,10,09,15,27,6.10
2008,10,09,15,28,6.20
2008,10,09,15,29,6.20
2008,10,09,15,30,6.20
2008,10,09,15,31,6.10
2008,10,09,15,32,6.10
2008,10,09,15,33,6.10
2008,10,09,15,34,6.00
2008,10,09,15,35,5.90
2008,10,09,15,36,5.90
2008,10,09,15,37,5.90
2008,10,09,15,38,5.90
2008,10,09,15,39,5.90
2008,10,09,15,40,5.90
2008,10,09,15,41,5.90
2008,10,09,15,42,5.90
2008,10,09,15,43,5.90
2008,10,09,15,44,6.00
2008,10,09,15,45,6.00
2008,10,09,15,46,6.10
2008,10,09,15,47,6.10
2008,10,09,15,48,6.10
2008,10,09,15,49,6.10
2008,10,09,15,50,6.20
2008,10,09,15,51,6.20
2008,10,09,15,52,6.20
2008,10,09,15,53,6.20
2008,10,09,15,54,6.20
2008,10,09,15,55,6.20
2008,10,09,15,56,6.20
2008,10,09,15,57,6.20
2008,10,09,15,58,6.20
2008,10,09,15,59,6.20
2008,10,09,16,00,6.20
2008,10,09,16,01,6.20
2008,10,09,16,02,6.20
2008,10,09,16,03,6.30
2008,10,09,16,04,6.30
2008,10,09,16,05,6.30
2008,10,09,16,06,6.30
2008,10,09,16,07,6.30
2008,10,09,16,08,6.30
2008,10,09,16,09,6.30
2008,10,09,16,10,6.30
2008,10,09,16,11,6.30
2008,10,09,16,12,6.30
2008,10,09,16,13,6.30
2008,10,09,16,14,6.30
2008,10,09,16,15,6.30
2008,10,09,16,16,6.30
2008,10,09,16,17,6.30
2008,10,09,16,18,6.40
2008,10,09,16,19,6.40
2008,10,09,16,20,6.40
2008,10,09,16,21,6.40
2008,10,09,16,22,6.40
2008,10,09,16,23,6.40
2008,10,09,16,24,6.40
2008,10,09,16,25,6.40
2008,10,09,16,26,6.30
2008,10,09,16,27,6.30
2008,10,09,16,28,6.30
2008,10,09,16,29,6.30
2008,10,09,16,30,6.30
2008,10,09,16,31,6.30
2008,10,09,16,32,6.40
2008,10,09,16,33,6.30
2008,10,09,16,34,6.40
2008,10,09,16,35,6.40
2008,10,09,16,36,6.40
2008,10,09,16,37,6.40
2008,10,09,16,38,6.40
2008,10,09,16,39,6.40
2008,10,09,16,40,6.40
2008,10,09,16,41,6.50
2008,10,09,16,42,6.50
2008,10,09,16,43,6.50
2008,10,09,16,44,6.50
2008,10,09,16,45,6.50
2008,10,09,16,46,6.50
2008,10,09,16,47,6.50
2008,10,09,16,48,6.40
2008,10,09,16,49,6.40
2008,10,09,16,50,6.40
2008,10,09,16,51,6.40
2008,10,09,16,52,6.40
2008,10,09,16,53,6.40
2008,10,09,16,54,6.40
2008,10,09,16,55,6.40
2008,10,09,16,56,6.40
2008,10,09,16,57,6.40
2008,10,09,16,58,6.40
2008,10,09,16,59,6.50
2008,10,09,17,00,6.50
2008,10,09,17,01,6.50
2008,10,09,17,02,6.60
2008,10,09,17,03,6.60
2008,10,09,17,04,6.60
2008,10,09,17,05,6.70
2008,10,09,17,06,6.70
2008,10,09,17,07,6.70
2008,10,09,17,08,6.70
2008,10,09,17,09,6.70
2008,10,09,17,10,6.70
2008,10,09,17,11,6.70
2008,10,09,17,12,6.70
2008,10,09,17,13,6.70
2008,10,09,17,14,6.70
2008,10,09,17,15,6.70
2008,10,09,17,16,6.70
2008,10,09,17,17,6.70
2008,10,09,17,18,6.70
2008,10,09,17,19,6.70
2008,10,09,17,20,6.70
2008,10,09,17,21,6.70
2008,10,09,17,22,6.80
2008,10,09,17,23,6.80
2008,10,09,17,24,6.80
2008,10,09,17,25,6.80
2008,10,09,17,26,6.80
2008,10,09,17,27,6.80
2008,10,09,17,28,6.90
2008,10,09,17,29,6.90
2008,10,09,17,30,6.90
2008,10,09,17,31,6.90
2008,10,09,17,32,6.80
2008,10,09,17,33,6.80
2008,10,09,17,34,6.90
2008,10,09,17,35,6.90
2008,10,09,17,36,6.90
2008,10,09,17,37,6.90
2008,10,09,17,38,6.90
2008,10,09,17,39,6.90
2008,10,09,17,40,6.90
2008,10,09,17,41,6.90
2008,10,09,17,42,7.00
2008,10,09,17,43,7.00
2008,10,09,17,44,7.00
2008,10,09,17,45,7.00
2008,10,09,17,46,7.00
2008,10,09,17,47,7.00
2008,10,09,17,48,6.90
2008,10,09,17,49,6.90
2008,10,09,17,50,7.00
2008,10,09,17,51,7.00
2008,10,09,17,52,7.00
2008,10,09,17,53,7.10
2008,10,09,17,54,7.10
2008,10,09,17,55,7.10
2008,10,09,17,56,7.10
2008,10,09,17,57,7.10
2008,10,09,17,58,7.10
2008,10,09,17,59,7.10
2008,10,09,18,00,7.10
2008,10,09,18,01,7.10
2008,10,09,18,02,7.10
2008,10,09,18,03,7.00